This demonstration page uses our WeatherBlox Daily Observations layout. Learn more.

Left ArrowRight Arrow

Hourly Observations for December 3, 2022

Temp ( °F °C ) Dew Point ( °F °C ) Humidity (%) Winds ( mph kmh ) Pressure ( in mb ) Visibility ( mi km ) Precip ( " mm )
12:53 am 00:53 Clear 55 12.8 43 6.1 64 64 E 6 9 30.12 1020 10 16 0.00 0.00
1:53 am 01:53 Clear 49 9.4 43 6.1 80 80 N 8 13 30.13 1020 10 16 0.00 0.00
2:53 am 02:53 Clear 49 9.4 42 5.6 77 77 N 6 9 30.14 1021 10 16 0.00 0.00
3:53 am 03:53 Clear 47 8.3 42 5.6 83 83 N 8 13 30.19 1022 10 16 0.00 0.00
4:46 am 04:46 Mostly Clear 54 12.2 38 3.3 54 54 ENE 17 28 30.27 1025 10 16 0.00 0.00
4:53 am 04:53 Mostly Clear 53 11.7 37 2.8 54 54 NE 21 33 30.21 1023 10 16 0.00 0.00
5:26 am 05:26 Mostly Cloudy with Haze 49 9.4 30 -1.1 48 48 ENE 17 28 30.34 1027 6 10 0.00 0.00
5:42 am 05:42 Cloudy with Haze 48 8.9 29 -1.7 47 47 ENE 21 33 30.37 1028 6 10 0.00 0.00
5:53 am 05:53 Cloudy with Haze 47 8.3 29 -1.7 49 49 NE 10 17 30.29 1026 6 10 0.00 0.00
6:22 am 06:22 Partly Cloudy 46 7.8 26 -3.3 45 45 NE 16 26 30.40 1029 8 13 0.00 0.00
6:53 am 06:53 Clear 45 7.2 24 -4.4 43 43 NE 16 26 30.34 1027 9 14 0.00 0.00
7:53 am 07:53 Sunny 44 6.7 22 -5.6 41 41 ENE 13 20 30.39 1029 10 16 0.00 0.00
8:53 am 08:53 Sunny 45 7.2 23 -5 41 41 NNE 8 13 30.47 1032 10 16 0.00 0.00
9:53 am 09:53 Sunny 46 7.8 20 -6.7 35 35 NE 10 17 30.49 1033 10 16 0.00 0.00
10:53 am 10:53 Sunny 48 8.9 19 -7.2 31 31 ENE 9 15 30.49 1033 10 16 0.00 0.00
11:53 am 11:53 Sunny 50 10 19 -7.2 29 29 ENE 10 17 30.46 1032 10 16 0.00 0.00
12:53 pm 12:53 Sunny 52 11.1 20 -6.7 28 28 ENE 10 17 30.41 1030 10 16 0.00 0.00
1:53 pm 13:53 Sunny 53 11.7 20 -6.7 27 27 E 7 11 30.37 1029 10 16 0.00 0.00
2:53 pm 14:53 Sunny 54 12.2 21 -6.1 27 27 E 6 9 30.32 1027 10 16 0.00 0.00
3:53 pm 15:53 Sunny 55 12.8 22 -5.6 27 27 E 8 13 30.31 1026 10 16 0.00 0.00
4:53 pm 16:53 Sunny 54 12.2 22 -5.6 28 28 ESE 9 15 30.29 1026 10 16 0.00 0.00
5:53 pm 17:53 Clear 51 10.6 25 -3.9 36 36 E 5 7 30.31 1026 10 16 0.00 0.00
6:53 pm 18:53 Clear 50 10 27 -2.8 40 40 Calm 30.32 1027 10 16 0.00 0.00
7:53 pm 19:53 Clear 47 8.3 30 -1.1 51 51 NNE 3 6 30.35 1028 10 16 0.00 0.00
8:53 pm 20:53 Clear 45 7.2 28 -2.2 51 51 E 6 9 30.35 1028 10 16 0.00 0.00
9:53 pm 21:53 Clear 45 7.2 27 -2.8 49 49 ENE 5 7 30.34 1027 10 16 0.00 0.00
10:53 pm 22:53 Clear 43 6.1 29 -1.7 57 57 ENE 5 7 30.33 1027 10 16 0.00 0.00
11:53 pm 23:53 Clear 43 6.1 28 -2.2 55 55 NNW 6 9 30.37 1029 10 16 0.00 0.00

Powered by AerisWeather